This is the latest recevied weather packets stored in our database for station/object W3EJE-13. If no packets are shown the sender has not sent any weather packets the latest 10 day(s).
| Time | Temp. | Humidity | Pressure | Rain* | Wind** | Luminosity | Snow |
|---|---|---|---|---|---|---|---|
| 1778081515 | 15° C | 99% | 1009.5 hPa | 0 mm | - | 42 W/m² | - |
| 1778081212 | 15° C | 99% | 1009.4 hPa | 0 mm | - | 35 W/m² | - |
| 1778080910 | 15° C | 97% | 1009.5 hPa | 0 mm | - | 32 W/m² | - |
| 1778080609 | 15° C | 97% | 1009.8 hPa | 0 mm | - | 30 W/m² | - |
| 1778080304 | 15° C | 96% | 1009.6 hPa | 0 mm | - | 22 W/m² | - |
| 1778080001 | 15.56° C | 96% | 1009.4 hPa | 0 mm | - | 34 W/m² | - |
| 1778079699 | 15° C | 96% | 1009.1 hPa | 0 mm | - | 41 W/m² | - |
| 1778079395 | 15° C | 98% | 1009.3 hPa | 0 mm | - | 45 W/m² | - |
| 1778079092 | 15° C | 98% | 1009.1 hPa | 0 mm | - | 54 W/m² | - |
| 1778078790 | 15° C | 98% | 1008.6 hPa | 0 mm | - | 54 W/m² | - |
| 1778078486 | 15° C | 99% | 1008.9 hPa | 0 mm | - | 69 W/m² | - |
| 1778078184 | 15° C | 99% | 1008.8 hPa | 0 mm | - | 45 W/m² | - |
| 1778077882 | 14.44° C | 99% | 1008.9 hPa | 0 mm | - | 48 W/m² | - |
| 1778077580 | 14.44° C | 99% | 1009.1 hPa | 0 mm | - | 41 W/m² | - |
| 1778077278 | 14.44° C | 99% | 1008.8 hPa | 0 mm | - | 60 W/m² | - |
| 1778076975 | 14.44° C | 99% | 1008.6 hPa | 0 mm | - | 65 W/m² | - |
| 1778076673 | 13.89° C | 99% | 1009.1 hPa | 0 mm | - | 48 W/m² | - |
| 1778076370 | 13.89° C | 99% | 1009 hPa | 0 mm | - | 36 W/m² | - |
| 1778076068 | 13.89° C | 99% | 1009.1 hPa | 0 mm | - | 40 W/m² | - |
| 1778075764 | 13.89° C | 99% | 1008.8 hPa | 0 mm | - | 34 W/m² | - |
| 1778075460 | 13.89° C | 99% | 1008.9 hPa | 0 mm | - | 35 W/m² | - |
| 1778075157 | 13.89° C | 99% | 1009 hPa | 0 mm | - | 46 W/m² | - |
| 1778074853 | 13.89° C | 99% | 1009 hPa | 0 mm | - | 55 W/m² | - |
| 1778074550 | 13.89° C | 99% | 1009.2 hPa | 0 mm | - | 51 W/m² | - |
| 1778074247 | 13.89° C | 99% | 1009 hPa | 0 mm | - | 55 W/m² | - |
* Rain latest hour (hover to see other rain measurements)
** Current wind speed in m/s (hover to see current wind gust speed)